Погода в Садовом

Россия / Карачаево-Черкесская Республика     44°19′05″N   42°02′07″E
темп.,
°C
ветер,
м/с
пор.,
м/с
влажн.,
%
обл.,
%
осадки,
мм/ч
давл.,
гПа
погр.,
м
18 мая, вт
вт1800:00+13з3795100 0.8 1010373
03:00+13зюз1396100 1.6 1011205
06:00+13зсз0195100 0.3 101151
09:00+16ссз23765 0.4 1011712
12:00+18ссв326798 0.1 10111260
15:00+17св347647 0.1 1011646
18:00+18всв46770 0.1 1011675
21:00+13в23920 0.1 101151
19 мая, ср
ср1900:00+12юв229346 0.0 101024
03:00+12ююв2380100 0.0 100840
06:00+12зюз237941 0.0 101085
09:00+15сз328382 0.0 1010506
12:00+11сз61087100 0.2 1014564
15:00+17сз457287 0.3 10141046
18:00+16ссв567495 0.0 1014631
21:00+12вюв23810 0.0 101747
20 мая, чт
чт2000:00+10ююв34922 0.0 101765
03:00+8ю3377100 0.0 101733
06:00+10ю236997 0.0 101743
09:00+17всв22575 0.0 1016516
12:00+21в44490 0.0 10141051
15:00+22всв445033 0.0 10131276
18:00+19в48707 0.0 1013335
21:00+13вюв368835 0.0 1014108
21 мая, пт
пт2100:00+13ююв33900 0.0 101331
03:00+12ююв22730 0.0 101214
06:00+13ююв23675 0.0 101241
09:00+21в33520 0.0 1011295
12:00+24в79525 0.0 1009596
15:00+25в812605 0.0 1008529
18:00+22вюв813724 0.0 1008322
21:00+18вюв46870 0.0 1008109
22 мая, сб
сб2200:00+15юв338569 0.0 100738
03:00+16ююв2257100 0.0 100718
06:00+17юв225888 0.0 100630
09:00+23в12557 0.0 1006224
12:00+24сз555994 0.0 1008801
15:00+25сз1156100 0.0 1008945
18:00+24всв1170100 0.0 1007165
21:00+20юз3486100 0.1 100993